Location: Lake Lucerne
(45.5315°N, 88.8489°W)
Time: 02:34:30
(UTC-06:00)

Envisat - Visible Passes

Search period start: 23 February 2018 00:00
Search period end: 05 March 2018 00:00
Orbit: 764 x 766 km, 98.2° (Epoch: 22 February)

Date Brightness Start Highest point End Pass type
(mag) Time Alt. Az. Time Alt. Az. Time Alt. Az.
23 Feb 3.8 18:22:39 10° SE 18:27:00 30° ENE 18:31:23 10° N visible
23 Feb 4.3 20:01:12 10° SSW 20:05:54 38° W 20:10:39 10° NNW visible
24 Feb 3.0 19:23:59 10° SSE 19:29:04 81° WSW 19:34:11 10° NNW visible
24 Feb 6.0 21:08:13 10° W 21:08:53 10° W 21:09:33 10° WNW visible
25 Feb 3.2 18:47:33 10° SE 18:52:25 48° ENE 18:57:18 10° N visible
25 Feb 5.2 20:27:43 10° SW 20:31:41 23° W 20:35:41 10° NW visible
26 Feb 4.1 18:11:56 10° ESE 18:15:58 24° ENE 18:20:01 10° N visible
26 Feb 3.9 19:49:49 10° S 19:54:42 48° W 19:59:38 10° NNW visible
27 Feb 2.9 19:12:51 10° SSE 19:17:56 82° ENE 19:23:02 10° NNW visible
27 Feb 5.8 20:55:11 10° WSW 20:57:35 13° W 20:59:59 10° WNW visible
28 Feb 3.5 18:36:39 10° SE 18:41:20 39° ENE 18:46:03 10° N visible
28 Feb 4.9 20:16:07 10° SSW 20:20:27 28° W 20:24:49 10° NW visible
01 Mar 3.5 19:38:32 10° S 19:43:32 60° W 19:48:34 10° NNW visible
02 Mar 2.9 19:01:47 10° SSE 19:06:48 66° ENE 19:11:51 10° N visible
02 Mar 5.6 20:43:05 10° SW 20:46:18 17° W 20:49:32 10° NW visible
03 Mar 3.7 18:25:49 10° SE 18:30:17 32° ENE 18:34:46 10° N visible
03 Mar 4.5 20:04:37 10° SSW 20:09:14 35° W 20:13:53 10° NNW visible
04 Mar 3.1 19:27:18 10° S 19:32:22 75° WSW 19:37:29 10° NNW visible
